| time (UTC) | temp C | wind direction | speed KPH | gust KPH | rain 1hr cm | rain 24hr cm | rain mn cm | humidity % | barometer mb |
| 20260507213245 | 26 | 114 | 6.4 | 12.9 | 0.00 | 0.00 | 0.00 | 15 | 1015.4 |
| 20260507212745 | 26 | 113 | 6.4 | 14.5 | 0.00 | 0.00 | 0.00 | 15 | 1015.5 |
| 20260507212727 | 26 | 123 | 4.8 | 14.5 | 0.00 | 0.00 | 0.00 | 15 | 1015.5 |
| 20260507211743 | 26 | 128 | 8.0 | 19.3 | 0.00 | 0.00 | 0.00 | 15 | 1015.5 |
| 20260507211726 | 26 | 112 | 8.0 | 22.5 | 0.00 | 0.00 | 0.00 | 14 | 1015.6 |
| 20260507210742 | 26 | 138 | 4.8 | 22.5 | 0.00 | 0.00 | 0.00 | 15 | 1015.8 |
| 20260507210240 | 26 | 292 | 3.2 | 6.4 | 0.00 | 0.00 | 0.00 | 15 | 1015.8 |
| 20260507205739 | 26 | 346 | 4.8 | 12.9 | 0.00 | 0.00 | 0.00 | 15 | 1015.9 |
| 20260507205236 | 26 | 22 | 6.4 | 17.7 | 0.00 | 0.00 | 0.00 | 16 | 1016.1 |
| 20260507204735 | 26 | 72 | 6.4 | 17.7 | 0.00 | 0.00 | 0.00 | 16 | 1016.2 |
| 20260507204234 | 26 | 322 | 6.4 | 14.5 | 0.00 | 0.00 | 0.00 | 16 | 1016.1 |
| 20260507203735 | 26 | 88 | 6.4 | 14.5 | 0.00 | 0.00 | 0.00 | 16 | 1016.2 |
| 20260507203454 | 26 | 153 | 4.8 | 14.5 | 0.00 | 0.00 | 0.00 | 16 | 1016.2 |
| 20260507202734 | 25 | 150 | 9.7 | 22.5 | 0.00 | 0.00 | 0.00 | 16 | 1016.4 |
| 20260507202234 | 25 | 238 | 11.3 | 22.5 | 0.00 | 0.00 | 0.00 | 17 | 1016.5 |
| 20260507201734 | 26 | 110 | 8.0 | 20.9 | 0.00 | 0.00 | 0.00 | 17 | 1016.7 |
| 20260507201238 | 26 | 144 | 6.4 | 17.7 | 0.00 | 0.00 | 0.00 | 17 | 1016.9 |
| 20260507200736 | 26 | 167 | 8.0 | 17.7 | 0.00 | 0.00 | 0.00 | 16 | 1017.0 |
| 20260507200234 | 26 | 165 | 9.7 | 17.7 | 0.00 | 0.00 | 0.00 | 16 | 1017.0 |
| 20260507195734 | 25 | 124 | 6.4 | 16.1 | 0.00 | 0.00 | 0.00 | 16 | 1017.0 |
| 20260507195237 | 25 | 132 | 6.4 | 17.7 | 0.00 | 0.00 | 0.00 | 17 | 1017.1 |
| 20260507194733 | 25 | 127 | 6.4 | 17.7 | 0.00 | 0.00 | 0.00 | 16 | 1017.1 |
| 20260507194237 | 26 | 79 | 3.2 | 16.1 | 0.00 | 0.00 | 0.00 | 17 | 1017.3 |
| 20260507193733 | 25 | 188 | 4.8 | 11.3 | 0.00 | 0.00 | 0.00 | 17 | 1017.3 |
| 20260507193234 | 25 | 228 | 4.8 | 16.1 | 0.00 | 0.00 | 0.00 | 17 | 1017.4 |
| 20260507192734 | 25 | 134 | 4.8 | 16.1 | 0.00 | 0.00 | 0.00 | 17 | 1017.4 |
| 20260507192234 | 25 | 132 | 6.4 | 16.1 | 0.00 | 0.00 | 0.00 | 18 | 1017.7 |
| 20260507191733 | 24 | 138 | 6.4 | 16.1 | 0.00 | 0.00 | 0.00 | 19 | 1017.7 |
| 20260507191457 | 24 | 355 | 6.4 | 12.9 | 0.00 | 0.00 | 0.00 | 20 | 1017.7 |
| 20260507190734 | 24 | 28 | 6.4 | 12.9 | 0.00 | 0.00 | 0.00 | 19 | 1017.9 |
| 20260507190234 | 24 | 102 | 6.4 | 16.1 | 0.00 | 0.00 | 0.00 | 19 | 1018.0 |
| 20260507185736 | 24 | 101 | 4.8 | 16.1 | 0.00 | 0.00 | 0.00 | 19 | 1018.1 |
| 20260507185458 | 24 | 69 | 4.8 | 9.7 | 0.00 | 0.00 | 0.00 | 20 | 1018.1 |
| 20260507184733 | 23 | 273 | 6.4 | 16.1 | 0.00 | 0.00 | 0.00 | 21 | 1018.1 |
| 20260507184236 | 23 | 218 | 4.8 | 16.1 | 0.00 | 0.00 | 0.00 | 21 | 1018.3 |
| 20260507183735 | 23 | 94 | 1.6 | 11.3 | 0.00 | 0.00 | 0.00 | 22 | 1018.3 |
| 20260507183452 | 23 | 80 | 3.2 | 12.9 | 0.00 | 0.00 | 0.00 | 22 | 1018.2 |
| 20260507182737 | 23 | 269 | 4.8 | 12.9 | 0.00 | 0.00 | 0.00 | 23 | 1018.3 |
| 20260507182232 | 23 | 327 | 4.8 | 11.3 | 0.00 | 0.00 | 0.00 | 22 | 1018.3 |
| 20260507181733 | 23 | 304 | 4.8 | 14.5 | 0.00 | 0.00 | 0.00 | 22 | 1018.4 |
| 20260507181714 | 23 | 40 | 3.2 | 14.5 | 0.00 | 0.00 | 0.00 | 22 | 1018.4 |
| 20260507180736 | 23 | 355 | 3.2 | 11.3 | 0.00 | 0.00 | 0.00 | 22 | 1018.7 |
| 20260507180233 | 22 | 181 | 3.2 | 11.3 | 0.00 | 0.00 | 0.00 | 22 | 1018.6 |
| 20260507175733 | 22 | 24 | 3.2 | 12.9 | 0.00 | 0.00 | 0.00 | 23 | 1018.7 |
| 20260507175233 | 22 | 198 | 4.8 | 14.5 | 0.00 | 0.00 | 0.00 | 23 | 1018.7 |
| 20260507174733 | 22 | 96 | 6.4 | 14.5 | 0.00 | 0.00 | 0.00 | 24 | 1018.8 |
| 20260507174234 | 22 | 130 | 6.4 | 12.9 | 0.00 | 0.00 | 0.00 | 23 | 1018.9 |
| 20260507173955 | 22 | 66 | 4.8 | 16.1 | 0.00 | 0.00 | 0.00 | 24 | 1019.0 |
| 20260507173233 | 21 | 44 | 4.8 | 16.1 | 0.00 | 0.00 | 0.00 | 24 | 1019.0 |
| 20260507172725 | 21 | 88 | 4.8 | 16.1 | 0.00 | 0.00 | 0.00 | 24 | 1019.1 |
| 20260507172222 | 21 | 284 | 4.8 | 12.9 | 0.00 | 0.00 | 0.00 | 26 | 1019.1 |
| 20260507171930 | 21 | 342 | 4.8 | 12.9 | 0.00 | 0.00 | 0.00 | 27 | 1019.3 |
| 20260507171921 | 21 | 0 | 4.8 | 12.9 | 0.00 | 0.00 | 0.00 | 27 | 1019.2 |
| 20260507170722 | 21 | 120 | 4.8 | 12.9 | 0.00 | 0.00 | 0.00 | 27 | 1019.3 |
| 20260507170222 | 20 | 139 | 4.8 | 11.3 | 0.00 | 0.00 | 0.00 | 29 | 1019.5 |
| 20260507165722 | 20 | 17 | 4.8 | 12.9 | 0.00 | 0.00 | 0.00 | 30 | 1019.5 |
| 20260507165225 | 20 | 5 | 4.8 | 12.9 | 0.00 | 0.00 | 0.00 | 31 | 1019.6 |
| 20260507164720 | 20 | 37 | 4.8 | 12.9 | 0.00 | 0.00 | 0.00 | 31 | 1019.7 |
| 20260507164221 | 20 | 11 | 4.8 | 14.5 | 0.00 | 0.00 | 0.00 | 30 | 1019.7 |
| 20260507163720 | 20 | 132 | 4.8 | 14.5 | 0.00 | 0.00 | 0.00 | 31 | 1019.8 |
| 20260507163223 | 19 | 59 | 4.8 | 16.1 | 0.00 | 0.00 | 0.00 | 31 | 1019.9 |
| 20260507162721 | 19 | 119 | 4.8 | 16.1 | 0.00 | 0.00 | 0.00 | 30 | 1019.8 |
| 20260507162221 | 18 | 309 | 4.8 | 12.9 | 0.00 | 0.00 | 0.00 | 32 | 1019.9 |
| 20260507161723 | 18 | 317 | 4.8 | 12.9 | 0.00 | 0.00 | 0.00 | 31 | 1019.9 |
| 20260507161216 | 18 | 325 | 6.4 | 16.1 | 0.00 | 0.00 | 0.00 | 32 | 1020.0 |
| 20260507160718 | 18 | 64 | 4.8 | 16.1 | 0.00 | 0.00 | 0.00 | 32 | 1019.9 |
| 20260507160217 | 18 | 315 | 4.8 | 9.7 | 0.00 | 0.00 | 0.00 | 33 | 1020.1 |
| 20260507155716 | 18 | 355 | 6.4 | 14.5 | 0.00 | 0.00 | 0.00 | 33 | 1020.1 |
| 20260507155216 | 18 | 68 | 6.4 | 14.5 | 0.00 | 0.00 | 0.00 | 33 | 1020.1 |
| 20260507154716 | 17 | 9 | 6.4 | 16.1 | 0.00 | 0.00 | 0.00 | 34 | 1020.2 |
| 20260507154419 | 17 | 5 | 6.4 | 16.1 | 0.00 | 0.00 | 0.00 | 35 | 1020.4 |
| 20260507154413 | 17 | 35 | 6.4 | 16.1 | 0.00 | 0.00 | 0.00 | 35 | 1020.2 |
| 20260507153216 | 17 | 343 | 6.4 | 16.1 | 0.00 | 0.00 | 0.00 | 36 | 1020.4 |
| 20260507152712 | 17 | 334 | 6.4 | 16.1 | 0.00 | 0.00 | 0.00 | 36 | 1020.2 |
| 20260507152215 | 17 | 70 | 6.4 | 20.9 | 0.00 | 0.00 | 0.00 | 36 | 1020.5 |
| 20260507151711 | 16 | 31 | 8.0 | 20.9 | 0.00 | 0.00 | 0.00 | 37 | 1020.5 |
| 20260507151212 | 16 | 22 | 6.4 | 16.1 | 0.00 | 0.00 | 0.00 | 37 | 1020.5 |
| 20260507150712 | 16 | 21 | 6.4 | 12.9 | 0.00 | 0.00 | 0.00 | 38 | 1020.6 |
| 20260507150439 | 16 | 21 | 6.4 | 12.9 | 0.00 | 0.00 | 0.00 | 38 | 1020.6 |
| 20260507145714 | 16 | 341 | 6.4 | 16.1 | 0.00 | 0.00 | 0.00 | 38 | 1020.6 |
| 20260507145214 | 16 | 59 | 8.0 | 16.1 | 0.00 | 0.00 | 0.00 | 38 | 1020.6 |
| 20260507144713 | 15 | 5 | 8.0 | 16.1 | 0.00 | 0.00 | 0.00 | 38 | 1020.6 |
| 20260507144206 | 15 | 24 | 8.0 | 19.3 | 0.00 | 0.00 | 0.00 | 38 | 1020.7 |
| 20260507143706 | 15 | 17 | 9.7 | 19.3 | 0.00 | 0.00 | 0.00 | 38 | 1020.6 |
| 20260507143205 | 15 | 57 | 9.7 | 17.7 | 0.00 | 0.00 | 0.00 | 38 | 1020.6 |
| 20260507142705 | 15 | 41 | 9.7 | 19.3 | 0.00 | 0.00 | 0.00 | 39 | 1020.7 |
| 20260507142208 | 15 | 11 | 6.4 | 19.3 | 0.00 | 0.00 | 0.00 | 39 | 1020.6 |
| 20260507141706 | 15 | 43 | 8.0 | 16.1 | 0.00 | 0.00 | 0.00 | 40 | 1020.7 |
| 20260507141209 | 15 | 21 | 9.7 | 16.1 | 0.00 | 0.00 | 0.00 | 41 | 1020.7 |
| 20260507140923 | 14 | 331 | 8.0 | 16.1 | 0.00 | 0.00 | 0.00 | 41 | 1020.6 |
| 20260507140205 | 14 | 5 | 6.4 | 14.5 | 0.00 | 0.00 | 0.00 | 41 | 1020.6 |
| 20260507135706 | 14 | 11 | 8.0 | 16.1 | 0.00 | 0.00 | 0.00 | 41 | 1020.6 |
| 20260507135218 | 13 | 12 | 8.0 | 16.1 | 0.00 | 0.00 | 0.00 | 41 | 1020.6 |
| 20260507134706 | 13 | 30 | 8.0 | 16.1 | 0.00 | 0.00 | 0.00 | 41 | 1020.6 |
| 20260507134207 | 13 | 5 | 8.0 | 16.1 | 0.00 | 0.00 | 0.00 | 41 | 1020.6 |
| 20260507133932 | 13 | 5 | 9.7 | 20.9 | 0.00 | 0.00 | 0.00 | 40 | 1020.6 |
| 20260507133205 | 13 | 10 | 9.7 | 20.9 | 0.00 | 0.00 | 0.00 | 40 | 1020.5 |
| 20260507132706 | 13 | 13 | 8.0 | 17.7 | 0.00 | 0.00 | 0.00 | 39 | 1020.2 |
| 20260507132206 | 13 | 0 | 8.0 | 17.7 | 0.00 | 0.00 | 0.00 | 39 | 1020.1 |
| 20260507131706 | 13 | 15 | 8.0 | 17.7 | 0.00 | 0.00 | 0.00 | 38 | 1020.0 |
| 20260507131207 | 13 | 26 | 8.0 | 17.7 | 0.00 | 0.00 | 0.00 | 37 | 1020.0 |
| 20260507130924 | 13 | 347 | 6.4 | 16.1 | 0.00 | 0.00 | 0.00 | 37 | 1020.0 |
| 20260507130207 | 13 | 13 | 8.0 | 16.1 | 0.00 | 0.00 | 0.00 | 38 | 1019.9 |
| 20260507125705 | 13 | 11 | 6.4 | 16.1 | 0.00 | 0.00 | 0.00 | 40 | 1020.0 |
| 20260507125209 | 12 | 5 | 8.0 | 16.1 | 0.00 | 0.00 | 0.00 | 41 | 1019.9 |
| 20260507124707 | 12 | 20 | 8.0 | 17.7 | 0.00 | 0.00 | 0.00 | 42 | 1019.8 |
| 20260507124205 | 12 | 21 | 8.0 | 17.7 | 0.00 | 0.00 | 0.00 | 43 | 1019.8 |
| 20260507123706 | 12 | 16 | 6.4 | 14.5 | 0.00 | 0.00 | 0.00 | 43 | 1019.6 |
| 20260507123205 | 12 | 0 | 4.8 | 14.5 | 0.00 | 0.00 | 0.00 | 43 | 1019.7 |
| 20260507122706 | 12 | 15 | 4.8 | 12.9 | 0.00 | 0.00 | 0.00 | 43 | 1019.7 |
| 20260507122427 | 12 | 23 | 6.4 | 12.9 | 0.00 | 0.00 | 0.00 | 43 | 1019.6 |
| 20260507121705 | 12 | 339 | 6.4 | 17.7 | 0.00 | 0.00 | 0.00 | 44 | 1019.6 |
| 20260507121205 | 12 | 324 | 6.4 | 17.7 | 0.00 | 0.00 | 0.00 | 44 | 1019.5 |
| 20260507120705 | 12 | 347 | 8.0 | 16.1 | 0.00 | 0.00 | 0.00 | 44 | 1019.3 |
| 20260507120209 | 12 | 355 | 8.0 | 17.7 | 0.00 | 0.00 | 0.00 | 43 | 1019.3 |
| 20260507115710 | 11 | 319 | 8.0 | 17.7 | 0.00 | 0.00 | 0.00 | 42 | 1019.3 |
| 20260507115433 | 11 | 9 | 4.8 | 16.1 | 0.00 | 0.00 | 0.00 | 41 | 1019.5 |
| 20260507114706 | 11 | 332 | 4.8 | 14.5 | 0.00 | 0.00 | 0.00 | 40 | 1019.2 |
| 20260507114208 | 11 | 20 | 6.4 | 14.5 | 0.00 | 0.00 | 0.00 | 38 | 1019.2 |
| 20260507113705 | 11 | 5 | 4.8 | 14.5 | 0.00 | 0.00 | 0.00 | 37 | 1019.3 |
| 20260507113205 | 11 | 5 | 4.8 | 14.5 | 0.00 | 0.00 | 0.00 | 35 | 1019.2 |
| 20260507112705 | 11 | 328 | 6.4 | 17.7 | 0.00 | 0.00 | 0.00 | 33 | 1019.2 |
| 20260507112205 | 11 | 5 | 8.0 | 20.9 | 0.00 | 0.00 | 0.00 | 32 | 1019.2 |
| 20260507111706 | 11 | 32 | 8.0 | 20.9 | 0.00 | 0.00 | 0.00 | 30 | 1019.1 |
| 20260507111209 | 11 | 0 | 8.0 | 16.1 | 0.00 | 0.00 | 0.00 | 29 | 1019.1 |
| 20260507110706 | 11 | 14 | 8.0 | 16.1 | 0.00 | 0.00 | 0.00 | 28 | 1018.9 |
| 20260507110410 | 11 | 5 | 6.4 | 14.5 | 0.00 | 0.00 | 0.00 | 28 | 1018.9 |
| 20260507110403 | 11 | 349 | 6.4 | 16.1 | 0.00 | 0.00 | 0.00 | 28 | 1018.9 |
| 20260507105203 | 12 | 26 | 9.7 | 19.3 | 0.00 | 0.00 | 0.00 | 27 | 1018.7 |
| 20260507104652 | 12 | 37 | 9.7 | 19.3 | 0.00 | 0.00 | 0.00 | 26 | 1018.8 |
| 20260507104150 | 13 | 49 | 4.8 | 16.1 | 0.00 | 0.00 | 0.00 | 27 | 1018.7 |
| 20260507104139 | 13 | 355 | 3.2 | 4.8 | 0.00 | 0.00 | 0.00 | 27 | 1018.4 |
| 20260507103642 | 13 | 330 | 3.2 | 4.8 | 0.00 | 0.00 | 0.00 | 27 | 1018.3 |
| 20260507102650 | 13 | 327 | 1.6 | 4.8 | 0.00 | 0.00 | 0.00 | 27 | 1018.3 |
| 20260507102152 | 13 | 327 | 0.0 | 3.2 | 0.00 | 0.00 | 0.00 | 27 | 1018.4 |
| 20260507101646 | 13 | 327 | 0.0 | 3.2 | 0.00 | 0.00 | 0.00 | 26 | 1018.4 |
| 20260507101143 | 13 | 327 | 1.6 | 4.8 | 0.00 | 0.00 | 0.00 | 26 | 1018.4 |
| 20260507100646 | 13 | 327 | 0.0 | 4.8 | 0.00 | 0.00 | 0.00 | 26 | 1018.4 |
| 20260507100144 | 14 | 309 | 0.0 | 3.2 | 0.00 | 0.00 | 0.00 | 26 | 1018.4 |
| 20260507095641 | 14 | 290 | 3.2 | 9.7 | 0.00 | 0.00 | 0.00 | 26 | 1018.4 |
| 20260507095140 | 14 | 290 | 3.2 | 9.7 | 0.00 | 0.00 | 0.00 | 25 | 1018.4 |
| 20260507094642 | 14 | 289 | 1.6 | 6.4 | 0.00 | 0.00 | 0.00 | 25 | 1018.4 |
| 20260507094358 | 14 | 136 | 1.6 | 4.8 | 0.00 | 0.00 | 0.00 | 24 | 1018.4 |
| 20260507093640 | 14 | 136 | 1.6 | 4.8 | 0.00 | 0.00 | 0.00 | 24 | 1018.3 |
| 20260507093141 | 15 | 103 | 0.0 | 0.0 | 0.00 | 0.00 | 0.00 | 24 | 1018.3 |
| 20260507092637 | 15 | 103 | 0.0 | 0.0 | 0.00 | 0.00 | 0.00 | 23 | 1018.4 |
| 20260507092138 | 15 | 103 | 0.0 | 3.2 | 0.00 | 0.00 | 0.00 | 22 | 1018.4 |
| 20260507091636 | 15 | 103 | 1.6 | 3.2 | 0.00 | 0.00 | 0.00 | 22 | 1018.3 |
| 20260507091136 | 16 | 103 | 1.6 | 3.2 | 0.00 | 0.00 | 0.00 | 21 | 1018.3 |
| 20260507090633 | 16 | 103 | 1.6 | 4.8 | 0.00 | 0.00 | 0.00 | 20 | 1018.3 |
| 20260507090354 | 16 | 103 | 3.2 | 11.3 | 0.00 | 0.00 | 0.00 | 20 | 1018.3 |
| 20260507085637 | 16 | 105 | 4.8 | 11.3 | 0.00 | 0.00 | 0.00 | 20 | 1018.2 |
| 20260507085133 | 16 | 123 | 1.6 | 9.7 | 0.00 | 0.00 | 0.00 | 19 | 1018.3 |
| 20260507084855 | 16 | 175 | 0.0 | 3.2 | 0.00 | 0.00 | 0.00 | 19 | 1018.2 |
| 20260507084133 | 16 | 195 | 0.0 | 3.2 | 0.00 | 0.00 | 0.00 | 19 | 1018.2 |
| 20260507083634 | 16 | 195 | 1.6 | 6.4 | 0.00 | 0.00 | 0.00 | 18 | 1018.2 |
| 20260507083135 | 16 | 80 | 1.6 | 6.4 | 0.00 | 0.00 | 0.00 | 18 | 1018.2 |
| 20260507082634 | 17 | 63 | 4.8 | 14.5 | 0.00 | 0.00 | 0.00 | 18 | 1018.2 |
| 20260507082134 | 17 | 306 | 6.4 | 14.5 | 0.00 | 0.00 | 0.00 | 18 | 1018.1 |
| 20260507081635 | 17 | 219 | 4.8 | 14.5 | 0.00 | 0.00 | 0.00 | 18 | 1018.1 |
| 20260507081133 | 17 | 248 | 4.8 | 9.7 | 0.00 | 0.00 | 0.00 | 17 | 1018.1 |
| 20260507080844 | 18 | 219 | 4.8 | 9.7 | 0.00 | 0.00 | 0.00 | 17 | 1018.1 |
| 20260507080837 | 17 | 228 | 4.8 | 8.0 | 0.00 | 0.00 | 0.00 | 17 | 1018.1 |
| 20260507075855 | 18 | 248 | 6.4 | 11.3 | 0.00 | 0.00 | 0.00 | 16 | 1018.2 |
| 20260507075133 | 18 | 265 | 4.8 | 11.3 | 0.00 | 0.00 | 0.00 | 16 | 1018.1 |
| 20260507074635 | 19 | 299 | 4.8 | 12.9 | 0.00 | 0.00 | 0.00 | 15 | 1018.2 |
| 20260507074128 | 19 | 299 | 6.4 | 16.1 | 0.00 | 0.00 | 0.00 | 16 | 1018.1 |
| 20260507073625 | 19 | 309 | 6.4 | 14.5 | 0.00 | 0.00 | 0.00 | 15 | 1018.3 |
| 20260507073340 | 19 | 338 | 9.7 | 17.7 | 0.00 | 0.00 | 0.00 | 15 | 1018.3 |
| 20260507072610 | 19 | 355 | 8.0 | 17.7 | 0.00 | 0.00 | 0.00 | 15 | 1018.2 |
| 20260507072107 | 19 | 11 | 6.4 | 14.5 | 0.00 | 0.00 | 0.00 | 15 | 1018.2 |
| 20260507071608 | 18 | 9 | 4.8 | 14.5 | 0.00 | 0.00 | 0.00 | 15 | 1018.3 |
| 20260507071106 | 18 | 9 | 4.8 | 12.9 | 0.00 | 0.00 | 0.00 | 15 | 1018.3 |
| 20260507070607 | 18 | 22 | 3.2 | 12.9 | 0.00 | 0.00 | 0.00 | 15 | 1018.3 |
| 20260507070107 | 18 | 0 | 3.2 | 8.0 | 0.00 | 0.00 | 0.00 | 15 | 1018.2 |
| 20260507065607 | 18 | 0 | 1.6 | 6.4 | 0.00 | 0.00 | 0.00 | 15 | 1018.3 |
| 20260507065107 | 18 | 0 | 3.2 | 8.0 | 0.00 | 0.00 | 0.00 | 15 | 1018.2 |
| 20260507064610 | 18 | 17 | 4.8 | 12.9 | 0.00 | 0.00 | 0.00 | 14 | 1018.2 |
| 20260507064106 | 18 | 9 | 3.2 | 12.9 | 0.00 | 0.00 | 0.00 | 14 | 1018.1 |
| 20260507063608 | 18 | 314 | 4.8 | 8.0 | 0.00 | 0.00 | 0.00 | 15 | 1018.2 |
| 20260507063331 | 18 | 309 | 4.8 | 11.3 | 0.00 | 0.00 | 0.00 | 15 | 1018.1 |
| 20260507062607 | 18 | 309 | 4.8 | 11.3 | 0.00 | 0.00 | 0.00 | 14 | 1018.1 |
| 20260507062107 | 18 | 5 | 6.4 | 12.9 | 0.00 | 0.00 | 0.00 | 14 | 1018.0 |
| 20260507061605 | 18 | 18 | 4.8 | 12.9 | 0.00 | 0.00 | 0.00 | 14 | 1018.0 |
| 20260507061546 | 18 | 5 | 3.2 | 11.3 | 0.00 | 0.00 | 0.00 | 14 | 1018.0 |
| 20260507060605 | 18 | 0 | 3.2 | 11.3 | 0.00 | 0.00 | 0.00 | 14 | 1018.0 |
| 20260507060104 | 18 | 42 | 3.2 | 11.3 | 0.00 | 0.00 | 0.00 | 14 | 1018.0 |
| 20260507055601 | 18 | 31 | 3.2 | 11.3 | 0.00 | 0.00 | 0.00 | 15 | 1017.8 |
| 20260507055319 | 18 | 298 | 3.2 | 11.3 | 0.00 | 0.00 | 0.00 | 14 | 1017.8 |
| 20260507054548 | 19 | 349 | 3.2 | 12.9 | 0.00 | 0.00 | 0.00 | 14 | 1017.7 |
| 20260507054050 | 19 | 329 | 4.8 | 12.9 | 0.00 | 0.00 | 0.00 | 13 | 1017.8 |
| 20260507053547 | 18 | 49 | 3.2 | 9.7 | 0.00 | 0.00 | 0.00 | 14 | 1017.8 |
| 20260507053047 | 19 | 303 | 1.6 | 6.4 | 0.00 | 0.00 | 0.00 | 15 | 1017.9 |
| 20260507052810 | 19 | 44 | 1.6 | 6.4 | 0.00 | 0.00 | 0.00 | 15 | 1017.9 |
| 20260507052045 | 20 | 92 | 3.2 | 8.0 | 0.00 | 0.00 | 0.00 | 14 | 1017.8 |
| 20260507051543 | 20 | 68 | 3.2 | 9.7 | 0.00 | 0.00 | 0.00 | 14 | 1017.9 |
| 20260507051042 | 20 | 149 | 3.2 | 9.7 | 0.00 | 0.00 | 0.00 | 13 | 1017.9 |
| 20260507050543 | 20 | 136 | 3.2 | 8.0 | 0.00 | 0.00 | 0.00 | 13 | 1017.8 |
| 20260507050040 | 20 | 123 | 1.6 | 8.0 | 0.00 | 0.00 | 0.00 | 13 | 1017.8 |
| 20260507045539 | 20 | 180 | 1.6 | 4.8 | 0.00 | 0.00 | 0.00 | 13 | 1017.8 |
| 20260507045039 | 21 | 310 | 0.0 | 6.4 | 0.00 | 0.00 | 0.00 | 12 | 1017.8 |
| 20260507044801 | 21 | 310 | 1.6 | 6.4 | 0.00 | 0.00 | 0.00 | 12 | 1017.9 |
| 20260507044039 | 21 | 309 | 3.2 | 14.5 | 0.00 | 0.00 | 0.00 | 11 | 1017.8 |
| 20260507043539 | 21 | 304 | 3.2 | 14.5 | 0.00 | 0.00 | 0.00 | 11 | 1017.8 |
| 20260507043040 | 21 | 303 | 4.8 | 16.1 | 0.00 | 0.00 | 0.00 | 11 | 1017.7 |
| 20260507042535 | 21 | 293 | 4.8 | 16.1 | 0.00 | 0.00 | 0.00 | 11 | 1017.6 |
| 20260507042032 | 21 | 23 | 3.2 | 11.3 | 0.00 | 0.00 | 0.00 | 12 | 1017.8 |
| 20260507041532 | 21 | 311 | 1.6 | 11.3 | 0.00 | 0.00 | 0.00 | 12 | 1017.7 |
| 20260507041031 | 21 | 342 | 1.6 | 11.3 | 0.00 | 0.00 | 0.00 | 12 | 1017.7 |
| 20260507040532 | 21 | 342 | 4.8 | 14.5 | 0.00 | 0.00 | 0.00 | 12 | 1017.6 |
| 20260507040024 | 21 | 323 | 6.4 | 14.5 | 0.00 | 0.00 | 0.00 | 12 | 1017.6 |
| 20260507035519 | 20 | 301 | 4.8 | 14.5 | 0.00 | 0.00 | 0.00 | 13 | 1017.6 |
| 20260507035012 | 20 | 314 | 1.6 | 14.5 | 0.00 | 0.00 | 0.00 | 14 | 1017.7 |
| 20260507034506 | 20 | 331 | 1.6 | 6.4 | 0.00 | 0.00 | 0.00 | 15 | 1017.6 |
| 20260507034007 | 20 | 331 | 1.6 | 8.0 | 0.00 | 0.00 | 0.00 | 16 | 1017.4 |
| 20260507033507 | 20 | 343 | 1.6 | 8.0 | 0.00 | 0.00 | 0.00 | 16 | 1017.3 |
| 20260507033229 | 20 | 5 | 1.6 | 4.8 | 0.00 | 0.00 | 0.00 | 17 | 1017.3 |
| 20260507032504 | 20 | 5 | 0.0 | 4.8 | 0.00 | 0.00 | 0.00 | 17 | 1017.3 |
| 20260507032007 | 20 | 5 | 0.0 | 3.2 | 0.00 | 0.00 | 0.00 | 16 | 1017.3 |
| 20260507031741 | 21 | 5 | 0.0 | 1.6 | 0.00 | 0.00 | 0.00 | 16 | 1017.2 |
| 20260507031002 | 21 | 5 | 0.0 | 3.2 | 0.00 | 0.00 | 0.00 | 16 | 1017.2 |
| 20260507030503 | 21 | 5 | 1.6 | 8.0 | 0.00 | 0.00 | 0.00 | 15 | 1017.2 |
| 20260507030005 | 21 | 5 | 1.6 | 12.9 | 0.00 | 0.00 | 0.00 | 15 | 1017.1 |
| 20260507025505 | 21 | 331 | 0.0 | 12.9 | 0.00 | 0.00 | 0.00 | 15 | 1017.0 |
| 20260507025002 | 21 | 0 | 1.6 | 6.4 | 0.00 | 0.00 | 0.00 | 15 | 1017.0 |
| 20260507024502 | 21 | 0 | 3.2 | 8.0 | 0.00 | 0.00 | 0.00 | 15 | 1016.9 |
| 20260507024003 | 22 | 19 | 3.2 | 8.0 | 0.00 | 0.00 | 0.00 | 15 | 1016.8 |
| 20260507023502 | 22 | 261 | 3.2 | 9.7 | 0.00 | 0.00 | 0.00 | 14 | 1016.8 |
| 20260507023227 | 22 | 261 | 4.8 | 14.5 | 0.00 | 0.00 | 0.00 | 14 | 1016.7 |
| 20260507022502 | 22 | 284 | 4.8 | 14.5 | 0.00 | 0.00 | 0.00 | 14 | 1016.5 |
| 20260507022016 | 22 | 311 | 3.2 | 12.9 | 0.00 | 0.00 | 0.00 | 14 | 1016.4 |
| 20260507021913 | 22 | 304 | 3.2 | 9.7 | 0.00 | 0.00 | 0.00 | 14 | 1016.4 |
| 20260507021906 | 22 | 321 | 4.8 | 12.9 | 0.00 | 0.00 | 0.00 | 15 | 1016.4 |
| 20260507020449 | 22 | 303 | 6.4 | 17.7 | 0.00 | 0.00 | 0.00 | 15 | 1016.3 |
| 20260507015949 | 22 | 321 | 8.0 | 17.7 | 0.00 | 0.00 | 0.00 | 15 | 1016.3 |
| 20260507015448 | 22 | 300 | 8.0 | 17.7 | 0.00 | 0.00 | 0.00 | 15 | 1016.2 |
| 20260507014949 | 22 | 315 | 8.0 | 17.7 | 0.00 | 0.00 | 0.00 | 15 | 1016.1 |
| 20260507014449 | 22 | 306 | 8.0 | 17.7 | 0.00 | 0.00 | 0.00 | 15 | 1016.1 |
| 20260507013951 | 23 | 286 | 6.4 | 17.7 | 0.00 | 0.00 | 0.00 | 15 | 1016.0 |
| 20260507013717 | 23 | 307 | 6.4 | 17.7 | 0.00 | 0.00 | 0.00 | 15 | 1016.0 |
| 20260507012949 | 23 | 307 | 6.4 | 19.3 | 0.00 | 0.00 | 0.00 | 15 | 1016.0 |
| 20260507012711 | 23 | 263 | 8.0 | 19.3 | 0.00 | 0.00 | 0.00 | 15 | 1015.9 |
| 20260507011948 | 23 | 348 | 8.0 | 17.7 | 0.00 | 0.00 | 0.00 | 14 | 1015.9 |
| 20260507011448 | 23 | 319 | 6.4 | 17.7 | 0.00 | 0.00 | 0.00 | 14 | 1015.8 |
| 20260507010947 | 23 | 5 | 8.0 | 22.5 | 0.00 | 0.00 | 0.00 | 14 | 1015.8 |
| 20260507010446 | 23 | 317 | 9.7 | 22.5 | 0.00 | 0.00 | 0.00 | 14 | 1015.6 |
| 20260507010214 | 24 | 296 | 11.3 | 20.9 | 0.00 | 0.00 | 0.00 | 14 | 1015.5 |
| 20260507005446 | 24 | 287 | 12.9 | 22.5 | 0.00 | 0.00 | 0.00 | 14 | 1015.6 |
| 20260507004946 | 24 | 336 | 11.3 | 24.1 | 0.00 | 0.00 | 0.00 | 14 | 1015.5 |
| 20260507004446 | 24 | 304 | 11.3 | 24.1 | 0.00 | 0.00 | 0.00 | 14 | 1015.5 |
| 20260507003947 | 24 | 0 | 12.9 | 24.1 | 0.00 | 0.00 | 0.00 | 14 | 1015.4 |
| 20260507003446 | 24 | 284 | 11.3 | 30.6 | 0.00 | 0.00 | 0.00 | 14 | 1015.3 |
| 20260507003205 | 24 | 311 | 12.9 | 30.6 | 0.00 | 0.00 | 0.00 | 14 | 1015.3 |
| 20260507002707 | 24 | 257 | 14.5 | 29.0 | 0.00 | 0.00 | 0.00 | 14 | 1015.2 |
| 20260507001947 | 24 | 321 | 12.9 | 29.0 | 0.00 | 0.00 | 0.00 | 14 | 1015.2 |
| 20260507001447 | 24 | 315 | 12.9 | 24.1 | 0.00 | 0.00 | 0.00 | 14 | 1015.2 |
| 20260507000946 | 24 | 286 | 14.5 | 25.7 | 0.00 | 0.00 | 0.00 | 14 | 1015.2 |
| 20260507000709 | 24 | 283 | 11.3 | 25.7 | 0.00 | 0.00 | 0.00 | 14 | 1015.2 |
| 20260506235942 | 24 | 317 | 12.9 | 25.7 | 0.00 | 0.00 | 0.00 | 14 | 1015.2 |
| 20260506235706 | 25 | 348 | 16.1 | 25.7 | 0.00 | 0.00 | 0.00 | 13 | 1015.2 |
| 20260506234943 | 25 | 261 | 12.9 | 25.7 | 0.00 | 0.00 | 0.00 | 14 | 1015.1 |
| 20260506234442 | 25 | 314 | 14.5 | 22.5 | 0.00 | 0.00 | 0.00 | 14 | 1015.1 |
| 20260506233942 | 25 | 315 | 16.1 | 25.7 | 0.00 | 0.00 | 0.00 | 14 | 1015.1 |
| 20260506233701 | 25 | 294 | 16.1 | 25.7 | 0.00 | 0.00 | 0.00 | 13 | 1015.1 |
| 20260506232942 | 24 | 330 | 16.1 | 30.6 | 0.00 | 0.00 | 0.00 | 14 | 1015.0 |
| 20260506232443 | 25 | 299 | 16.1 | 30.6 | 0.00 | 0.00 | 0.00 | 14 | 1015.0 |
| 20260506231941 | 25 | 315 | 16.1 | 27.4 | 0.00 | 0.00 | 0.00 | 14 | 1015.0 |
| 20260506231701 | 24 | 294 | 16.1 | 27.4 | 0.00 | 0.00 | 0.00 | 14 | 1015.0 |
| 20260506230940 | 25 | 297 | 14.5 | 27.4 | 0.00 | 0.00 | 0.00 | 13 | 1015.0 |
| 20260506230439 | 25 | 299 | 11.3 | 32.2 | 0.00 | 0.00 | 0.00 | 14 | 1015.0 |
| 20260506225941 | 25 | 274 | 14.5 | 32.2 | 0.00 | 0.00 | 0.00 | 14 | 1015.0 |
| 20260506225440 | 25 | 309 | 14.5 | 29.0 | 0.00 | 0.00 | 0.00 | 14 | 1015.1 |
| 20260506224940 | 25 | 265 | 11.3 | 24.1 | 0.00 | 0.00 | 0.00 | 14 | 1015.0 |
| 20260506224440 | 25 | 300 | 11.3 | 22.5 | 0.00 | 0.00 | 0.00 | 15 | 1015.1 |
| 20260506223940 | 24 | 299 | 14.5 | 30.6 | 0.00 | 0.00 | 0.00 | 15 | 1015.1 |
| 20260506223440 | 24 | 323 | 16.1 | 30.6 | 0.00 | 0.00 | 0.00 | 15 | 1015.1 |
| 20260506222940 | 24 | 281 | 16.1 | 30.6 | 0.00 | 0.00 | 0.00 | 15 | 1015.1 |
| 20260506222441 | 24 | 311 | 19.3 | 33.8 | 0.00 | 0.00 | 0.00 | 14 | 1015.2 |
| 20260506221933 | 25 | 336 | 17.7 | 40.2 | 0.00 | 0.00 | 0.00 | 14 | 1015.1 |
| 20260506221432 | 25 | 315 | 17.7 | 40.2 | 0.00 | 0.00 | 0.00 | 14 | 1015.1 |
| 20260506220931 | 25 | 310 | 19.3 | 32.2 | 0.00 | 0.00 | 0.00 | 14 | 1015.2 |
| 20260506220432 | 25 | 259 | 17.7 | 32.2 | 0.00 | 0.00 | 0.00 | 14 | 1015.3 |
| 20260506215933 | 24 | 288 | 16.1 | 32.2 | 0.00 | 0.00 | 0.00 | 14 | 1015.2 |
| 20260506215431 | 25 | 280 | 16.1 | 33.8 | 0.00 | 0.00 | 0.00 | 14 | 1015.4 |
| 20260506214932 | 25 | 226 | 16.1 | 33.8 | 0.00 | 0.00 | 0.00 | 14 | 1015.3 |
| 20260506214639 | 23 | 301 | 20.9 | 41.8 | 0.00 | 0.00 | 0.00 | 14 | 1015.5 |
| 20260506214629 | 24 | 220 | 17.7 | 32.2 | 0.00 | 0.00 | 0.00 | 14 | 1015.2 |